TimeEDT,TemperatureF,Dew PointF,Humidity,Sea Level PressureIn,VisibilityMPH,Wind Direction,Wind SpeedMPH,Gust SpeedMPH,PrecipitationIn,Events,Conditions,WindDirDegrees,DateUTC
12:52 AM,75.0,71.1,87,30.10,10.0,Calm,Calm,-,N/A,,Clear,0,2013-07-09 04:52:00
1:52 AM,75.9,71.1,85,30.09,10.0,SW,4.6,-,N/A,,Clear,230,2013-07-09 05:52:00
2:52 AM,75.9,71.1,85,30.09,10.0,SSW,8.1,-,N/A,,Clear,210,2013-07-09 06:52:00
3:52 AM,75.9,71.1,85,30.08,10.0,SW,8.1,-,N/A,,Clear,230,2013-07-09 07:52:00
4:52 AM,75.9,72.0,87,30.09,10.0,SW,8.1,-,N/A,,Clear,220,2013-07-09 08:52:00
5:52 AM,75.0,72.0,90,30.09,10.0,SW,5.8,-,N/A,,Mostly Cloudy,230,2013-07-09 09:52:00
6:52 AM,75.0,72.0,90,30.10,10.0,West,3.5,-,N/A,,Overcast,260,2013-07-09 10:52:00
7:52 AM,77.0,73.0,88,30.10,10.0,WSW,6.9,-,N/A,,Mostly Cloudy,250,2013-07-09 11:52:00
8:52 AM,79.0,72.0,79,30.11,10.0,West,6.9,-,N/A,,Overcast,270,2013-07-09 12:52:00
9:52 AM,81.0,71.1,72,30.11,10.0,West,4.6,-,N/A,,Overcast,280,2013-07-09 13:52:00
10:52 AM,81.0,72.0,74,30.12,7.0,WSW,4.6,-,N/A,Rain,Light Rain,250,2013-07-09 14:52:00
11:52 AM,81.0,73.0,77,30.11,7.0,SSW,3.5,-,N/A,,Overcast,210,2013-07-09 15:52:00
12:16 PM,80.6,71.6,74,30.11,7.0,SSW,4.6,-,0.00,Rain,Light Rain,210,2013-07-09 16:16:00
12:52 PM,80.1,73.0,79,30.11,7.0,SSW,4.6,-,0.00,Rain,Light Rain,210,2013-07-09 16:52:00
1:15 PM,82.4,71.6,70,30.10,10.0,SSW,3.5,-,0.00,,Mostly Cloudy,200,2013-07-09 17:15:00
1:52 PM,84.0,71.1,65,30.09,10.0,SW,3.5,-,0.00,,Mostly Cloudy,230,2013-07-09 17:52:00
2:52 PM,87.1,72.0,61,30.08,10.0,South,5.8,-,N/A,,Mostly Cloudy,190,2013-07-09 18:52:00
3:52 PM,84.0,73.0,69,30.07,10.0,SSW,4.6,-,N/A,,Mostly Cloudy,200,2013-07-09 19:52:00
4:30 PM,84.2,73.4,70,30.06,10.0,South,4.6,-,0.00,Rain,Light Rain,190,2013-07-09 20:30:00
4:44 PM,84.2,73.4,70,30.06,10.0,Calm,Calm,-,0.00,,Mostly Cloudy,0,2013-07-09 20:44:00
4:52 PM,84.0,73.9,72,30.06,10.0,SE,3.5,-,0.00,,Mostly Cloudy,140,2013-07-09 20:52:00
5:52 PM,84.0,77.0,79,30.04,10.0,SE,6.9,-,N/A,,Mostly Cloudy,140,2013-07-09 21:52:00
6:52 PM,81.0,68.0,65,30.03,10.0,Variable,4.6,-,N/A,,Scattered Clouds,0,2013-07-09 22:52:00
7:52 PM,80.1,66.9,64,30.02,10.0,SSE,3.5,-,N/A,,Scattered Clouds,160,2013-07-09 23:52:00
8:52 PM,78.1,70.0,76,30.05,10.0,South,6.9,-,N/A,,Mostly Cloudy,180,2013-07-10 00:52:00
9:52 PM,78.1,73.0,84,30.06,10.0,SSW,5.8,-,N/A,,Scattered Clouds,210,2013-07-10 01:52:00
10:52 PM,78.1,73.0,84,30.05,10.0,SSW,4.6,-,N/A,,Scattered Clouds,200,2013-07-10 02:52:00
11:52 PM,78.1,72.0,81,30.05,10.0,SSW,4.6,-,N/A,,Mostly Cloudy,210,2013-07-10 03:52:00